THOR ABLESTAR R/B, 1508

Orbit data source: Space-Track

THOR ABLESTAR R/B, 1508 is space debris in LEO originally from a launch on Fri, 13 Aug 1965 UTC launched from the Air Force Western Test Range (AFWTR). Debris objects in space refer to the collection of defunct objects orbiting the Earth. Examples of debris include non-operational satellites, rocket bodies, and fragments generated from explosions, collisions, or faulty payload assembly.

Loading next visibility...
Identifier
1508, 1965-065B
Orbit
LEO
Country
Flag of USUS
Related business
Manufacturer
Aerojet
Mission
Spacecraft
Bus & Motor
ABLESTAR, Unknown motor
Mass
~600 kg wet, 600 kg dry
Launch date (UTC)
1965-08-13 (61 years ago)
Launch vehicle
Unknown
Launch site
Air Force Western Test Range (AFWTR)
Object type
Payload
Rocket body
Debris
Shape & HBR
Unknown
Radar Cross Section
Large (>1 m²)

Expand to show TLE details & history
Last TLE update: 13 hours ago

TLE from 13 hours ago
0 THOR ABLESTAR R/B
1 01508U 65065B   26104.10230789  .00000046  00000-0  72753-4 0  9997
2 01508  90.1305 306.8860 0042901 150.6823 323.5229 13.36092562956852
Epoch: 2026-04-14T02:27Z
TLE epoch observation values (Epoch: 2026-04-14T02:27:19.401Z)
Latitude
66.16713°
Longitude
-111.9343°
Altitude
1,109.555 km
Speed
7.316 km/s
True Right ascension
08h 28m 43s
True Declination
66° 02' 45"
Sunlit
Object was in daylight at epoch
Visualization orbit readout
Latitude
Unknown
Longitude
Unknown
Altitude
Unknown
Speed
Unknown
Apparent Right ascension
Unknown
Apparent Declination
Unknown
Sunlit
N/A
Visualization observer readout
Local Sidereal Time
21:42:29
Azimuth
Unknown
Elevation
Unknown
Doppler factor
Unknown
Orbital elements
Apogee altitude
1,153.112 km
Perigee altitude
1,088.769 km
Semi-major axis
7,499.077 km
Eccentricity
0.00429
Inclination
90.1305°
RAAN
306.886°
Arg. of periapsis
150.6823°
True anomaly
323.22937°
Mean anomaly
323.5229°
Eccentric anomaly
323.37626°
Mean motion
3.34219 °/min
Orbital period
107.71 mins
BSTAR
0.000072753
Loading maneuver chart data...
Computing Atmospheric mass density...
Loading historical data...
Loading historical data...
Loading historical data...
Loading historical data...
Loading historical data...
Loading historical data...
Loading historical data...

Documentation

Showing up to 5 results
|